Weather Roundup
Issued by NWS Chicago, IL

Home | Current Version | Previous Version | Graphics & Text | Print | Product List | Glossary On
Versions: 1 2 3 4 5 6 7 8 9 10 11 12 13 14 15 16 17 18 19 20 21 22 23 24 25 26 27 28 29 30 31 32 33 34 35 36 37 38 39 40 41 42 43 44 45 46 47 48 49 50
000
NZUS59 KLOT 091403
HRRLOT

CHICAGO AREA WEATHER ROUNDUP
NATIONAL WEATHER SERVICE CHICAGO/ROMEOVILLE IL
800 AM CST FRI DEC 09 2016

NOTE: "FAIR" INDICATES FEW OR NO CLOUDS BELOW 12,000 FEET WITH NO
SIGNIFICANT WEATHER AND/OR OBSTRUCTIONS TO VISIBILITY.

* THESE STATIONS ARE NOT UNDER NWS QUALITY CONTROL. THEY ALSO MAY NOT
  REPORT WEATHER SUCH AS PRECIPITATION OR FOG.

ILZ005-006-012>014-019>023-091500-
NORTHEAST ILLINOIS

CITY           SKY/WX    TMP DP  RH WIND       PRES   REMARKS
OHARE          FLURRIES  23  17  78 W12       30.50R WCI  12
MIDWAY         FLURRIES  24  16  71 W12       30.51R WCI  13
AURORA         CLOUDY    22  17  81 W12       30.52R WCI  10
LANSING*       CLOUDY    23  19  86 W7        30.51R WCI  14
WAUKEGAN       PTCLDY    22  15  75 W7        30.48R WCI  13
DUPAGE AIRPORT CLOUDY    22  16  78 W9        30.50R WCI  12
WHEELING       CLOUDY    23  16  74 W7        30.51R WCI  15
KANKAKEE*      FLURRIES  23  17  80 W12       30.54R WCI  11
MORRIS*        CLOUDY    22  17  81 W13       30.53R WCI   9
NORTHERLY ISL    N/A     25  18  74 W10         N/A  WCI  15
$$

WIZ051-052-058>065-066-070>072-091500-
SOUTHEAST WISCONSIN

CITY           SKY/WX    TMP DP  RH WIND       PRES   REMARKS
MILWAUKEE      PTCLDY    23  14  68 W13       30.47R WCI  11
KENOSHA*       CLEAR     21  15  78 W9        30.48R WCI  11
RACINE*        CLEAR     21  14  74 W9        30.49R WCI  11
WAUKESHA       CLEAR     18  12  79 W14G20    30.47R WCI   4
$$

INZ001>003-010>013-019-020-091500-
NORTHWEST INDIANA

CITY           SKY/WX    TMP DP  RH WIND       PRES   REMARKS
GARY*          CLOUDY    25  19  80 W10       30.51R WCI  15
MICHIGAN CITY* NOT AVBL
RENSSELAER*    NOT AVBL
VALPARAISO     CLOUDY    23  17  78 W14       30.49R WCI  11
$$

LMZ740>746-091500-
SOUTHERN LAKE MICHIGAN

STATION/POSITION TIME  SKY/WX   TEMP WIND        PRES    VSBY
                                AIR  DIR/SP/G
                 (UTC)          (F)  (DEG/KT/KT) (MB)    (MI)
HARRISON CRIB    1340            25  300/ 16/ 19   N/A
BURNHAM HARBOR   1400            25  270/  9/ 11   N/A
CALUMET HARBOR   1330            23  260/  5/  8 1031.9R
BURNS HARBOR     1340            27  310/ 15/ 18 1032.5R
MICHIGAN CITY    NOT AVBL
$$

ABBREVIATIONS USED IN REMARKS
   TC - TEMPERATURE IN CELSIUS
  WCI - WIND CHILL INDEX
   HX - HEAT INDEX
  VSB - VISIBILITY
$$



USA.gov is the U.S. government's official web portal to all federal, state and local government web resources and services.